Location: Pasadena, ca
(34.1243°N, 118.1037°W)
Time: 05:02:00
(UTC-08:00)

ISS - Pass Details

Date: 18 November 2017
Orbit: 402 x 407 km, 51.6° (Epoch: 24 November)

Event Time Altitude Azimuth Distance (km) Brightness Sun altitude
Exits shadow 05:47:23 12° 285° (WNW) 1,321 -1.9 -8.8°
Maximum altitude 05:49:48 26° 230° (SW) 818 -2.6 -8.3°
Drops below altitude 10° 05:52:34 10° 170° (S) 1,442 -0.6 -7.8°
Sets 05:54:49 0° 158° (SSE) 2,297 0.7 -7.3°
